This is the latest recevied weather packets stored in our database for station/object N8SDR. If no packets are shown the sender has not sent any weather packets the latest 10 day(s).
| Time | Temp. | Humidity | Pressure | Rain* | Wind** | Luminosity | Snow |
|---|---|---|---|---|---|---|---|
| 1778069585 | 7.78° C | 93% | 1007.7 hPa | 0 mm | - | 127 W/m² | - |
| 1778069283 | 7.78° C | 93% | 1007.9 hPa | 0 mm | - | 95 W/m² | - |
| 1778068981 | 7.78° C | 94% | 1007.7 hPa | 0 mm | - | 75 W/m² | - |
| 1778068678 | 7.78° C | 94% | 1007.4 hPa | 0 mm | - | 68 W/m² | - |
| 1778068376 | 7.78° C | 94% | 1007.6 hPa | 0 mm | - | 63 W/m² | - |
| 1778068073 | 7.78° C | 95% | 1007.5 hPa | 0 mm | - | 57 W/m² | - |
| 1778067771 | 7.78° C | 95% | 1007.2 hPa | 0 mm | - | 45 W/m² | - |
| 1778067469 | 7.78° C | 96% | 1007.1 hPa | 0 mm | - | 46 W/m² | - |
| 1778067167 | 7.78° C | 96% | 1006.8 hPa | 0 mm | - | 39 W/m² | - |
| 1778066863 | 7.22° C | 97% | 1006.5 hPa | 0 mm | - | 48 W/m² | - |
| 1778066561 | 7.22° C | 98% | 1006.3 hPa | 0 mm | - | 40 W/m² | - |
| 1778066258 | 7.22° C | 98% | 1006.3 hPa | 0 mm | - | 24 W/m² | - |
| 1778065956 | 7.22° C | 99% | 1006.6 hPa | 0 mm | - | 23 W/m² | - |
| 1778065652 | 7.22° C | 99% | 1006.5 hPa | 0 mm | - | 16 W/m² | - |
| 1778065350 | 6.67° C | 99% | 1006.6 hPa | 0 mm | - | 10 W/m² | - |
| 1778065046 | 6.67° C | 99% | 1006.6 hPa | 0 mm | - | 6 W/m² | - |
| 1778064744 | 6.67° C | 99% | 1006.8 hPa | 0 mm | - | 4 W/m² | - |
| 1778064441 | 6.67° C | 99% | 1006.8 hPa | 0 mm | - | 3 W/m² | - |
| 1778064139 | 6.67° C | 99% | 1006.4 hPa | 0 mm | - | 2 W/m² | - |
| 1778063836 | 6.67° C | 99% | 1006.2 hPa | 0 mm | - | 0 W/m² | - |
| 1778063533 | 6.67° C | 99% | 1006.5 hPa | 0 mm | - | 0 W/m² | - |
| 1778063231 | 6.67° C | 99% | 1006.6 hPa | 0 mm | - | 0 W/m² | - |
| 1778062929 | 6.67° C | 99% | 1006.3 hPa | 0 mm | - | 0 W/m² | - |
| 1778062625 | 6.67° C | 99% | 1005.9 hPa | 0 mm | - | 0 W/m² | - |
| 1778062321 | 6.67° C | 99% | 1005.6 hPa | 0 mm | - | 0 W/m² | - |
* Rain latest hour (hover to see other rain measurements)
** Current wind speed in m/s (hover to see current wind gust speed)